Rechercher aéroport 
image banner adimage banner ad
image banner ad

DAON - Tlemcen / Zenata-Messali El Hadj

Situé à Tlemcen, Algeria

ICAO - DAON, IATA - TLM

Données fournies par Airmate  

Information générale

Coordonnées: N35°0'55" W1°27'3"
Élévation : 813 feet MSL.
 
Voir autres Aéroports à Tlemcen Province

Données opérationnelles

Accessible au public
Heure actuelle UTC:
Heure actuelle locale:
Météo
METAR: DAON 291000Z 00000KT CAVOK 19/05 Q1026
TAF: TAF COR DAON 290500Z 2906/3006 VRB02KT CAVOK TEMPO 2910/2918 01010KT
Voir NOTAMs / SUP AIP / TFR affectant cet aéroport [VIEW]
Fréquences de communication: [VIEW]

Pistes:

Identifiant RWYQFULongueur (ft)Largeur (ft)SurfaceLDA (ft)
0769°8530148ASP
25249°8530148

Coordonnées de l'aéroport

Adresse: Tlemcen Algeria

Vue satellite de DAON